Location: Carrigahorig
(53.0625°N, 8.1439°W)
Time: 23:39:48
(UTC+00:00)

Cosmos 1992 Rocket - Pass Details

Date: 15 May 2026
Orbit: 755 x 760 km, 74.0° (Epoch: 11 June)

Event Time Altitude Azimuth Distance (km) Brightness Sun altitude
Rises 21:24:38 0° 203° (SSW) 3,208 7.0 -7.7°
Reaches altitude 10° 21:26:59 10° 203° (SSW) 2,286 6.2 -7.9°
Maximum altitude 21:32:11 88° 113° (ESE) 767 4.0 -8.4°
Drops below altitude 10° 21:37:25 10° 26° (NNE) 2,299 6.8 -8.9°
Sets 21:39:48 0° 27° (NNE) 3,228 7.6 -9.2°
